Location: Niverville
(49.6028°N, 97.0419°W)
Time: 08:26:05
(UTC-05:00)

Daily predictions for brighter satellites

Satellite Brightness Start Highest point End
(mag) Time Altitude Azimuth Time Altitude Azimuth Time Altitude Azimuth
H-2A R/B 3.1 21:59:43 10° S 22:03:53 47° W 22:08:09 10° NNW
Cosmos 1766 4.4 22:03:21 10° N 22:06:55 30° ENE 22:10:28 10° SE
Cosmos 2369 Rocket 2.3 22:01:54 10° NNW 22:07:37 89° ENE 22:13:15 10° SSE
Cosmos 1992 Rocket 4.2 22:03:50 10° NNW 22:09:05 75° WSW 22:14:16 10° SSE
CZ-2C R/B 3.5 22:08:25 10° SW 22:09:41 13° W 22:10:58 10° WNW
Cosmos 2084 4.1 22:07:05 10° NW 22:11:00 45° NE 22:15:06 10° ESE
USA 81 4.2 22:06:06 10° N 22:11:23 66° E 22:16:38 10° SSE
Cosmos 1626 Rocket 4.1 22:07:46 10° SSW 22:12:10 64° WNW 22:16:33 10° N
UNK 4.4 22:07:16 10° NNE 22:12:36 56° ESE 22:18:12 10° S
MetOp-B 4.2 22:07:42 10° SSE 22:13:04 85° ENE 22:18:28 10° NNW
SL-8 R/B 3.7 22:09:07 10° W 22:13:57 77° S 22:18:48 10° E
Lacrosse 4 Rocket 2.3 22:12:38 10° S 22:16:07 28° ESE 22:19:38 10° NE
Cosmos 1634 Rocket 4.0 22:12:46 10° N 22:18:59 77° E 22:25:11 10° SSE
USA 245 4.1 22:14:37 10° SSE 22:20:17 72° ENE 22:24:58 10° N
SL-16 R/B 4.1 22:17:01 10° WSW 22:22:13 36° NW 22:27:27 10° NNE
SeaSat 1 2.8 22:19:11 10° SSE 22:24:05 63° WSW 22:29:00 10° NW
NOAA 11 4.4 22:20:46 10° SSE 22:26:06 63° ENE 22:31:28 10° N
SL-08 RB Rocket 3.9 22:25:29 10° SSE 22:29:56 59° ENE 22:34:24 10° N
Cosmos 1953 Rocket 3.8 22:27:35 10° S 22:31:54 55° E 22:36:16 10° NNE
CZ-4B R/B 3.5 22:27:59 10° NNE 22:33:04 67° ESE 22:38:14 10° S
YAOGAN 6 2.8 22:29:27 10° S 22:33:11 79° WSW 22:36:58 10° NNW
Cosmos-2242 3.8 22:30:25 10° N 22:34:35 40° ENE 22:38:15 13° SE
Cosmos 1190 Rocket 4.1 22:32:11 10° S 22:37:26 63° ESE 22:42:42 10° NNE
Cosmos 2263 4.3 22:32:54 10° NNW 22:38:32 75° WSW 22:43:55 11° SSE
Cosmos 2279 Rocket 4.1 22:33:38 10° N 22:39:53 67° ENE 22:45:51 11° SSE
Cosmos 1515 4.2 22:36:22 10° SSW 22:40:12 63° WNW 22:44:03 10° N
H-2A R/B 2.5 22:36:00 12° SE 22:40:25 46° ENE 22:45:18 10° N
ISS -3.3 22:38:32 10° SW 22:41:45 58° SSE 22:44:59 10° ENE
Cosmos 2346 Rocket 4.5 22:37:58 10° S 22:44:09 86° E 22:50:18 10° N
CZ-4C R/B 3.5 22:41:12 13° SSE 22:44:57 70° ENE 22:48:54 10° N
Atlas Centaur 2 4.3 22:40:26 10° SW 22:45:14 18° S 22:49:12 13° SSE
SPOT 1/Viking Rocket 3.8 22:44:20 10° S 22:49:27 66° WSW 22:54:36 10° NNW
COSMOS 2406 4.3 22:45:47 13° SSE 22:49:44 26° ESE 22:54:22 10° NE
SAR-Lupe-2 4.0 22:49:00 16° SE 22:51:41 50° ENE 22:55:11 10° N
Cosmos 1066 Rocket 4.4 22:46:57 10° SSW 22:52:42 84° WNW 22:58:36 10° N
Cosmos 676 Rocket 4.2 22:49:21 10° S 22:54:32 55° ESE 22:59:44 10° NNE
CZ-4 R/B 3.9 22:49:33 10° NNE 22:54:34 74° ESE 22:59:35 10° S
Cosmos 1953 2.6 22:52:58 10° N 22:56:54 52° ENE 22:59:43 17° SSE
ATLAS 3B R/B 2.9 22:49:21 10° SSW 22:56:59 69° SE 23:04:24 10° NE
Landsat 7 3.8 22:54:04 14° SSE 22:58:08 81° ENE 23:02:56 10° NNW
Lacrosse 5 rocket 3.3 22:56:44 10° WNW 23:00:20 30° N 23:04:06 10° NE
Cosmos 1943 Rocket 2.2 22:59:02 10° NNW 23:04:36 82° WSW 23:09:02 17° SSE
Cosmos 1758 Rocket 3.6 23:01:17 10° S 23:05:41 84° W 23:10:03 10° N
Spot 4 4.1 23:04:05 17° SE 23:07:41 60° ENE 23:12:25 10° N
CARTOSAT-1 3.6 23:05:16 17° SSE 23:08:31 75° ENE 23:12:51 10° N
USA 234 3.7 23:06:30 16° SSE 23:11:44 50° SW 23:18:06 10° WNW
Cosmos 1943 3.5 23:06:52 10° SW 23:12:32 70° WNW 23:18:16 10° NNE
Terra 1.8 23:10:21 18° SSE 23:13:57 81° ENE 23:18:44 10° NNW
Cosmos 1346 Rocket 3.5 23:11:06 10° SSW 23:14:56 53° WNW 23:18:50 10° N
Cosmos 1656 Rocket 3.9 23:09:46 10° NNW 23:15:28 66° ENE 23:19:41 18° SE
Lacrosse 5 3.3 23:15:52 10° WNW 23:20:37 38° N 23:25:21 10° ENE
SL-27 R/B 2.4 23:19:49 21° S 23:21:49 56° ESE 23:25:08 10° NNE
Cosmos 407 Rocket 3.8 23:17:59 10° SSW 23:23:14 72° WNW 23:28:28 10° NNE
Cosmos 1842 3.2 23:20:16 15° S 23:23:27 88° W 23:27:23 10° N
COSMOS 2487 4.1 23:23:16 19° ESE 23:23:53 20° E 23:26:32 10° NE
COSMOS 2455 4.0 23:19:52 10° WSW 23:25:39 47° NW 23:31:29 10° NNE
Cosmos 1842 Rocket 3.5 23:27:43 10° N 23:32:07 78° E 23:34:46 24° SSE
Cosmos 1818 4.4 23:27:04 10° NNW 23:32:22 45° NE 23:37:07 12° ESE
Cosmos 1733 4.0 23:33:51 10° N 23:37:31 39° ENE 23:39:17 24° SE
USA 238 DEB 3.8 23:32:35 10° SSW 23:39:29 58° ESE 23:46:23 10° NE
USA 238 3.8 23:32:42 10° SSW 23:39:36 57° ESE 23:46:29 10° NE
Aureole 2 3.9 23:38:32 10° NNW 23:41:38 88° SW 23:42:36 39° SSE
Cosmos 1954 Rocket 4.1 23:38:25 10° SSW 23:43:45 80° WNW 23:49:05 10° NNE
Cosmos 1758 4.0 23:40:07 10° NNW 23:44:08 51° W 23:46:45 20° SSW
IGS 5A 3.9 23:41:59 21° S 23:44:35 55° W 23:48:42 10° NNW
Cosmos 2208 Rocket 4.2 23:40:16 10° NNW 23:45:25 65° WSW 23:48:36 23° S
CZ-4B R/B 3.7 23:44:25 13° E 23:46:21 18° ENE 23:48:54 10° NNE
Cosmos 2369 Rocket 4.4 23:47:26 10° WNW 23:50:50 16° W 23:54:14 10° SW
Cosmos 1092 Rocket 4.1 23:47:06 21° S 23:51:30 69° E 23:57:45 10° NNE
Lacrosse 4 Rocket 2.8 23:50:53 10° WSW 23:54:42 38° NW 23:58:37 10° NNE
